Flag for U.S.A. Weather past 2 weeks in Worcester, Massachusetts, U.S.A.

Now
35 °F

Passing clouds.


Feels Like: 24 °F
Forecast: 32 / 40 °F
Wind: 21 mph from West

Location: Worcester Regional Airport

Current Time: Mar 4, 2015 at 6:43:22 AM

Latest Report: Mar 4, 2015 at 5:54 AM


Visibility: 10 mi

Pressure: 29.67 "Hg

Humidity: 88%

Dew point: 32 °F

Location of WorcesterLocation

Historic Weather in Worcester — Graph

°F

Worcester temperature yesterday

Maximum temperature yesterday: 32 °F (at 11:54 PM)
Minimum temperature yesterday: 9 °F (at 6:54 AM)
Average temperature yesterday: 21 °F

Past Weeks' High & Low Weather Summary

 TemperatureHumidityPressure
High37 °F (Feb 22, 2:54 PM)93% (Feb 22, 12:54 AM)30.73 "Hg (Feb 22, 12:54 AM)
Low-6 °F (Feb 24, 4:54 AM)28% (Feb 27, 2:54 PM)29.49 "Hg (Feb 19, 2:04 PM)
Average17 °F60%30.10 "Hg
* Reported Feb 17 4:54 AM — Mar 4 4:54 AM, Worcester, Weather by CustomWeather, © 2015

Note: Actual official high and low records may vary slightly from our data, if they occured in-between our weather recording intervals... More about our weather records

Advertising

Worcester weather history for previous 24 hours

 ConditionsComfort  
Time TempWeatherWind HumidityBarometerVisibility
4:54 AM
Wed, Mar 4
34 °FLow clouds.22 mph92%29.64 "Hg10 mi
3:54 AM34 °FLow clouds.24 mph92%29.64 "Hg10 mi
2:54 AM34 °FLow clouds.24 mph92%29.64 "Hg10 mi
1:54 AM34 °FLow clouds.21 mph92%29.68 "Hg10 mi
12:54 AM33 °FLight rain. Low clouds.18 mph92%29.73 "Hg9 mi
11:54 PM
Tue, Mar 3
32 °FFreezing rain. Ice fog.21 mph88%29.78 "Hg5 mi
10:54 PM27 °FFreezing rain. Ice fog.15 mph89%29.85 "Hg4 mi
9:54 PM22 °FLight snow. Ice fog.15 mph89%29.88 "Hg1 mi
8:54 PM21 °FLight snow. Ice fog.9 mph88%29.97 "Hg2 mi
7:54 PM20 °FLight snow. Ice fog.9 mph89%30.04 "Hg1 mi
6:54 PM20 °FLight snow. Ice fog.10 mph85%30.09 "Hg1 mi
6:03 PM21 °FLight snow. Overcast.15 mph81%30.07 "Hg2 mi
4:54 PM26 °FOvercast.10 mph38%30.16 "Hg10 mi
3:54 PM26 °FOvercast.13 mph38%30.19 "Hg10 mi
2:54 PM26 °FPartly sunny.8 mph40%30.24 "Hg10 mi
1:54 PM26 °FSunny.9 mph40%30.27 "Hg10 mi
12:54 PM25 °FSunny.8 mph38%30.32 "Hg10 mi
11:54 AM24 °FSunny.6 mph38%30.36 "Hg10 mi
10:54 AM22 °FSunny.3 mph42%30.37 "Hg10 mi
9:54 AM22 °FSunny.7 mph36%30.38 "Hg10 mi
8:54 AM20 °FSunny.7 mph40%30.39 "Hg10 mi
7:54 AM16 °FSunny.3 mph53%30.40 "Hg10 mi
6:54 AM9 °FSunny.5 mph73%30.37 "Hg10 mi
Weather by CustomWeather, © 2015

See weather overviewHow to use our weather pages